Tracking 28531 objects as of 27-Feb-2024
HD Live streaming from Space Station
objects crossing your sky now

SUPERBIRD C

Track SUPERBIRD C now!
SUPERBIRD C is classified as:


NORAD ID: 24880
Int'l Code: 1997-036A
Perigee: 36,104.8 km
Apogee: 36,164.2 km
Inclination: 10.6 °
Period: 1,453.5 minutes
Semi major axis: 42505 km
RCS: 12.5892 m2 (large)
Launch date: July 28, 1997
Source: Japan (JPN)
Launch site: AIR FORCE EASTERN TEST RANGE (AFETR)

14 Ku-band; Asia-Pacific region; voice and video communications.
Your satellite tracking list
Your tracking list is empty




NASA's NSSDC Master Catalog

Two Line Element Set (TLE):
1 24880U 97036A   24057.47895734  .00000060  00000-0  00000+0 0  9997
2 24880  10.6363  39.9400 0006985 329.9376  30.1036  0.99068510 96944
Source of the keplerian elements: AFSPC